Location: Marshall
(39.8477°N, 87.1868°W)
Time: 03:31:25
(UTC+00:00)

Envisat - Pass Details

Date: 12 May 2026
Orbit: 761 x 763 km, 98.4° (Epoch: 9 June)

Event Time Altitude Azimuth Distance (km) Brightness Sun altitude
Rises 07:30:33 0° 26° (NNE) 3,230 7.6 -27.0°
Reaches altitude 10° 07:33:15 10° 39° (NE) 2,300 6.4 -26.7°
Maximum altitude 07:37:24 25° 95° (E) 1,490 4.7 -26.4°
Enters shadow 07:39:07 21° 125° (SE) 1,652 4.6 -26.2°
